Galeao, Brazil

8:43 AM -02 on December 11, 2017 (GMT -0200)
Galeao-Antonio C Jobim International

Weather History for SBGL - March, 2014

Change the Weather History Date:

Tuesday, March 18, 2014

  Actual Average Record
Temperature  
Mean Temperature 86 °F -  
Max Temperature 98 °F 84 °F 98 °F (2014)
Min Temperature 74 °F 71 °F 69 °F (1997)
Cooling Degree Days 21    
Growing Degree Days 36 (Base 50)    
Moisture  
Dew Point 64 °F    
Average Humidity 53    
Maximum Humidity 78    
Minimum Humidity 23    
Precipitation  
Precipitation 0.00 in - - ()
Sea Level Pressure  
Sea Level Pressure 29.89 in    
Wind  
Wind Speed 4 mph ()    
Max Wind Speed 20 mph    
Max Gust Speed -    
Visibility 8.5 miles    
Events      
Averages and records for this station are not official NWS values.
T = Trace of Precipitation, MM = Missing Value Source: Averaged Metar Reports

Daily Weather History Graph

Daily Weather History Graph

Search for Another Location

Airport or City:

Trip Planner

Search our weather history database for the weather conditions in past years. The results will help you decide how hot, cold, wet, or windy it might be!

Date:

Astronomy

Mar. 18, 2014 Rise Set
Actual Time 5:55 AM -03 6:05 PM -03
Civil Twilight 5:33 AM -03 6:28 PM -03
Nautical Twilight 5:07 AM -03 6:54 PM -03
Astronomical Twilight 4:41 AM -03 7:20 PM -03
Moon 7:19 PM -03 (3/18) 7:26 AM -03 (3/18)
Length of Visible Light 12h 54m
Length of Day
12h 09m
Waning Gibbous, 96% of the Moon is Illuminated
Mar 18
Waning Gibbous
Mar 23
Last Quarter
Mar 30
New
Apr 7
First Quarter
Apr 15
Full

Hourly Weather History & Observations

Time (-03) Temp. Heat Index Dew Point Humidity Pressure Visibility Wind Dir Wind Speed Gust Speed Precip Events Conditions
12:00 AM 77.0 °F - 64.4 °F 65% 29.89 in - East 2.3 mph - N/A   Clear
1:00 AM 77.0 °F - 66.2 °F 69% 29.89 in - Calm Calm - N/A   Clear
2:00 AM 75.2 °F - 66.2 °F 73% 29.86 in - East 2.3 mph - N/A   Clear
3:00 AM 75 °F - 66 °F 66% 29.88 in 12 mi East 3.5 mph - -  
3:00 AM 75.2 °F - 66.2 °F 73% 29.86 in - East 3.5 mph - N/A   Clear
4:00 AM 73.4 °F - 66.2 °F 78% 29.86 in - ENE 2.3 mph - N/A   Clear
5:00 AM 73.4 °F - 66.2 °F 78% 29.89 in - East 2.3 mph - N/A   Clear
6:00 AM 73.4 °F - 66.2 °F 78% 29.92 in - NE 3.5 mph - N/A   Clear
7:00 AM 77.0 °F - 69.8 °F 78% 29.92 in - North 2.3 mph - N/A   Clear
8:00 AM 80.6 °F 83.2 °F 68.0 °F 65% 29.95 in - NE 4.6 mph - N/A   Clear
9:00 AM 82 °F - 69 °F 57% 29.96 in 12 mi North 5.8 mph - -  
9:00 AM 82.4 °F 86.3 °F 69.8 °F 66% 29.95 in - North 5.8 mph - N/A   Clear
10:00 AM 87.8 °F 89.4 °F 64.4 °F 46% 29.95 in - NW 2.3 mph - N/A   Clear
11:00 AM 91.4 °F 93.2 °F 64.4 °F 41% 29.92 in - NE 5.8 mph - N/A   Clear
12:00 PM 93 °F - 60 °F 24% 29.91 in 12 mi NE 6.9 mph - -   Scattered Clouds
12:00 PM 93.2 °F 93.3 °F 60.8 °F 34% 29.89 in 6.2 mi NE 6.9 mph - N/A   Partly Cloudy
1:00 PM 96.8 °F 94.4 °F 53.6 °F 23% 29.86 in 6.2 mi East 3.5 mph - N/A   Partly Cloudy
2:00 PM 98.6 °F 99.4 °F 60.8 °F 29% 29.86 in 6.2 mi NW 4.6 mph - N/A   Partly Cloudy
3:00 PM 93 °F - 60 °F 23%  in 12 mi ESE 16.1 mph - -  
3:00 PM 93.2 °F 92.6 °F 59.0 °F 32% 29.83 in 6.2 mi ESE 16.1 mph - N/A   Partly Cloudy
4:00 PM 91.4 °F 91.4 °F 60.8 °F 36% 29.83 in 6.2 mi SE 16.1 mph - N/A   Partly Cloudy
5:00 PM 89.6 °F 88.9 °F 59.0 °F 36% 29.83 in 6.2 mi SE 19.6 mph - N/A   Partly Cloudy
6:00 PM 87.8 °F 87.6 °F 60.8 °F 40% 29.83 in 6.2 mi SE 15.0 mph - N/A   Partly Cloudy
7:00 PM 86.0 °F 86.1 °F 60.8 °F 43% 29.86 in - SE 5.8 mph - N/A   Clear
8:00 PM 82.4 °F 83.9 °F 64.4 °F 54% 29.89 in - East 5.8 mph - N/A   Clear
9:00 PM 81 °F - 65 °F 48% 29.91 in 11 mi SE 2.3 mph - -   Haze
9:00 PM 80.6 °F 82.3 °F 64.4 °F 58% 29.89 in - SE 2.3 mph - N/A   Clear
10:00 PM 78.8 °F - 66.2 °F 65% 29.92 in - East 3.5 mph - N/A   Clear
11:00 PM 80.6 °F 83.2 °F 68.0 °F 65% 29.92 in - West 5.8 mph - N/A   Clear